timestamp,surface_pressure_avg,surface_temp_avg,battery_voltage,lat,long
2018-01-13 00:00:00+00:00,265.3731,2.3,12.89,47.84626,-54.09684
2018-01-13 00:10:00+00:00,259.7231,2.3,12.89,47.84626,-54.09684
2018-01-13 00:20:00+00:00,248.0897,2.3,12.97,47.84626,-54.09684
2018-01-13 00:30:00+00:00,241.0031,2.3,12.97,47.84626,-54.09684
2018-01-13 00:40:00+00:00,241.813,2.3,12.97,47.84626,-54.09684
2018-01-13 00:50:00+00:00,236.2831,2.31,12.97,47.84626,-54.09684
2018-01-13 01:00:00+00:00,229.8098,2.3,12.89,47.84626,-54.09684
2018-01-13 01:10:00+00:00,230.4081,2.31,12.89,47.84626,-54.09684
2018-01-13 01:20:00+00:00,231.9148,2.3,12.97,47.84626,-54.09684
2018-01-13 01:30:00+00:00,222.1364,2.3,12.97,47.84626,-54.09684
2018-01-13 01:40:00+00:00,216.8131,2.3,12.97,47.84626,-54.09684
2018-01-13 01:50:00+00:00,219.2248,2.31,12.97,47.84626,-54.09684
2018-01-13 02:00:00+00:00,217.9598,2.3,12.89,47.84626,-54.09684
2018-01-13 02:10:00+00:00,214.0431,2.3,12.89,47.84626,-54.09684
2018-01-13 02:20:00+00:00,212.5999,2.3,12.89,47.84626,-54.09684
2018-01-13 02:30:00+00:00,210.5797,2.31,12.89,47.84626,-54.09684
2018-01-13 02:40:00+00:00,208.9915,2.3,12.97,47.84626,-54.09684
2018-01-13 02:50:00+00:00,215.2648,2.33,12.97,47.84626,-54.09684
2018-01-13 03:00:00+00:00,222.4548,2.33,12.89,47.84626,-54.09684
2018-01-13 03:10:00+00:00,220.7664,2.32,12.81,47.84626,-54.09684
2018-01-13 03:20:00+00:00,216.0314,2.3,12.89,47.84626,-54.09684
2018-01-13 03:30:00+00:00,220.5531,2.32,12.89,47.84626,-54.09684
2018-01-13 03:40:00+00:00,222.1714,2.33,12.89,47.84626,-54.09684
2018-01-13 03:50:00+00:00,217.7114,2.3,12.97,47.84626,-54.09684
2018-01-13 04:00:00+00:00,218.8381,2.32,12.89,47.84626,-54.09684
2018-01-13 04:10:00+00:00,224.2997,2.33,12.81,47.84626,-54.09684
2018-01-13 04:20:00+00:00,225.8164,2.32,12.89,47.84626,-54.09684
2018-01-13 04:30:00+00:00,232.6581,2.32,12.89,47.84626,-54.09684
2018-01-13 04:40:00+00:00,240.9731,2.34,12.89,47.84626,-54.09684
2018-01-13 04:50:00+00:00,241.3481,2.33,12.89,47.84626,-54.09684
2018-01-13 05:00:00+00:00,242.2764,2.32,12.89,47.84626,-54.09684
2018-01-13 05:10:00+00:00,250.7514,2.35,12.81,47.84626,-54.09684
2018-01-13 05:20:00+00:00,257.1731,2.35,12.89,47.84626,-54.09684
2018-01-13 05:30:00+00:00,256.5814,2.34,12.89,47.84626,-54.09684
2018-01-13 05:40:00+00:00,257.4814,2.33,12.89,47.84626,-54.09684
2018-01-13 05:50:00+00:00,265.4781,2.35,12.89,47.84626,-54.09684
2018-01-13 06:00:00+00:00,272.413,2.36,12.81,47.84626,-54.09684
2018-01-13 06:10:00+00:00,273.1981,2.36,12.81,47.84626,-54.09684
2018-01-13 06:20:00+00:00,277.9647,2.37,12.89,47.84626,-54.09684
2018-01-13 06:30:00+00:00,287.8797,2.35,12.89,47.84626,-54.09684
2018-01-13 06:40:00+00:00,290.6147,2.37,12.89,47.84626,-54.09684
2018-01-13 06:50:00+00:00,291.5714,2.37,12.89,47.84626,-54.09684
2018-01-13 07:00:00+00:00,300.0314,2.37,12.81,47.84626,-54.09684
2018-01-13 07:10:00+00:00,306.0264,2.38,12.81,47.84626,-54.09684
2018-01-13 07:20:00+00:00,306.2714,2.38,12.89,47.84626,-54.09684
2018-01-13 07:30:00+00:00,312.7596,2.38,12.89,47.84626,-54.09684
2018-01-13 07:40:00+00:00,321.7296,2.38,12.89,47.84626,-54.09684
2018-01-13 07:50:00+00:00,324.0013,2.38,12.89,47.84626,-54.09684
2018-01-13 08:00:00+00:00,327.2346,2.37,12.81,47.84626,-54.09684
2018-01-13 08:10:00+00:00,336.3347,2.37,12.81,47.84626,-54.09684
2018-01-13 08:20:00+00:00,336.6747,2.38,12.89,47.84626,-54.09684
2018-01-13 08:30:00+00:00,333.288,2.38,12.89,47.84626,-54.09684
2018-01-13 08:40:00+00:00,335.1379,2.37,12.89,47.84626,-54.09684
2018-01-13 08:50:00+00:00,336.603,2.38,12.89,47.84626,-54.09684
2018-01-13 09:00:00+00:00,336.5363,2.38,12.81,47.84626,-54.09684
2018-01-13 09:10:00+00:00,338.5263,2.38,12.81,47.84626,-54.09684
2018-01-13 09:20:00+00:00,341.8796,2.39,12.81,47.84626,-54.09684
2018-01-13 09:30:00+00:00,333.6529,2.39,12.81,47.84626,-54.09684
2018-01-13 09:40:00+00:00,333.8247,2.39,12.89,47.84626,-54.09684
2018-01-13 09:50:00+00:00,339.1897,2.39,12.89,47.84626,-54.09684
2018-01-13 10:00:00+00:00,334.9363,2.4,12.81,47.84626,-54.09684
2018-01-13 10:10:00+00:00,329.5713,2.39,12.81,47.84626,-54.09684
2018-01-13 10:20:00+00:00,335.5613,2.4,12.81,47.84626,-54.09684
2018-01-13 10:30:00+00:00,333.8431,2.4,12.81,47.84626,-54.09684
2018-01-13 10:40:00+00:00,326.3879,2.4,12.89,47.84626,-54.09684
2018-01-13 10:50:00+00:00,326.5231,2.4,12.89,47.84626,-54.09684
2018-01-13 11:00:00+00:00,333.6396,2.4,12.81,47.84626,-54.09684
2018-01-13 11:10:00+00:00,325.028,2.4,12.73,47.84626,-54.09684
2018-01-13 11:20:00+00:00,313.1447,2.4,12.81,47.84626,-54.09684
2018-01-13 11:30:00+00:00,314.5414,2.4,12.81,47.84626,-54.09684
2018-01-13 11:40:00+00:00,316.3013,2.4,12.81,47.84626,-54.09684
2018-01-13 11:50:00+00:00,303.7164,2.4,12.81,47.84626,-54.09684
2018-01-13 12:00:00+00:00,291.178,2.4,12.81,47.84626,-54.09684
2018-01-13 12:10:00+00:00,290.418,2.4,12.73,47.84626,-54.09684
2018-01-13 12:20:00+00:00,290.4697,2.4,12.81,47.84626,-54.09684
2018-01-13 12:30:00+00:00,278.8698,2.4,12.81,47.84626,-54.09684
2018-01-13 12:40:00+00:00,266.5798,2.5,12.81,47.84626,-54.09684
2018-01-13 12:50:00+00:00,264.218,2.5,12.81,47.84626,-54.09684
2018-01-13 13:00:00+00:00,259.2664,2.5,12.81,47.84626,-54.09684
2018-01-13 13:10:00+00:00,252.5431,2.5,12.73,47.84626,-54.09684
2018-01-13 13:20:00+00:00,252.7047,2.5,12.81,47.84626,-54.09684
2018-01-13 13:30:00+00:00,251.3265,2.5,12.81,47.84626,-54.09684
2018-01-13 13:40:00+00:00,244.8464,2.5,12.89,47.84626,-54.09684
2018-01-13 13:50:00+00:00,243.2414,2.5,12.89,47.84626,-54.09684
2018-01-13 14:00:00+00:00,246.1531,2.5,12.81,47.84626,-54.09684
2018-01-13 14:10:00+00:00,245.6781,2.5,12.81,47.84626,-54.09684
2018-01-13 14:20:00+00:00,244.8781,2.5,12.81,47.84626,-54.09684
2018-01-13 14:30:00+00:00,245.5814,2.5,12.81,47.84626,-54.09684
2018-01-13 14:40:00+00:00,243.6297,2.5,12.89,47.84626,-54.09684
2018-01-13 14:50:00+00:00,238.0648,2.5,12.89,47.84626,-54.09684
2018-01-13 15:00:00+00:00,235.2931,2.49,12.81,47.84626,-54.09684
2018-01-13 15:10:00+00:00,237.1414,2.5,12.81,47.84626,-54.09684
2018-01-13 15:20:00+00:00,237.2914,2.5,12.81,47.84626,-54.09684
2018-01-13 15:30:00+00:00,232.2647,2.5,12.89,47.84626,-54.09684
2018-01-13 15:40:00+00:00,236.5347,2.5,12.89,47.84626,-54.09684
2018-01-13 15:50:00+00:00,243.7081,2.5,12.89,47.84626,-54.09684
2018-01-13 16:00:00+00:00,241.4998,2.5,12.81,47.84626,-54.09684
2018-01-13 16:10:00+00:00,237.9614,2.5,12.81,47.84626,-54.09684
2018-01-13 16:20:00+00:00,244.5564,2.49,12.89,47.84626,-54.09684
2018-01-13 16:30:00+00:00,246.4247,2.5,12.89,47.84626,-54.09684
2018-01-13 16:40:00+00:00,239.4048,2.5,12.89,47.84626,-54.09684
2018-01-13 16:50:00+00:00,237.5398,2.49,12.89,47.84626,-54.09684
2018-01-13 17:00:00+00:00,242.3648,2.5,12.81,47.84626,-54.09684
2018-01-13 17:10:00+00:00,241.9847,2.5,12.81,47.84626,-54.09684
2018-01-13 17:20:00+00:00,240.5964,2.5,12.81,47.84626,-54.09684
2018-01-13 17:30:00+00:00,242.4831,2.5,12.81,47.84626,-54.09684
2018-01-13 17:40:00+00:00,246.7214,2.5,12.81,47.84626,-54.09684
2018-01-13 17:50:00+00:00,250.4164,2.5,12.89,47.84626,-54.09684
2018-01-13 18:00:00+00:00,254.5764,2.5,12.81,47.84626,-54.09684
2018-01-13 18:10:00+00:00,256.8615,2.5,12.73,47.84626,-54.09684
2018-01-13 18:20:00+00:00,258.5314,2.5,12.81,47.84626,-54.09684
2018-01-13 18:30:00+00:00,261.3264,2.5,12.81,47.84626,-54.09684
2018-01-13 18:40:00+00:00,264.7547,2.5,12.81,47.84626,-54.09684
2018-01-13 18:50:00+00:00,272.5348,2.5,12.81,47.84626,-54.09684
2018-01-13 19:00:00+00:00,277.0831,2.5,12.81,47.84626,-54.09684
2018-01-13 19:10:00+00:00,279.3947,2.5,12.73,47.84626,-54.09684
2018-01-13 19:20:00+00:00,286.3997,2.5,12.81,47.84626,-54.09684
2018-01-13 19:30:00+00:00,295.5264,2.5,12.81,47.84626,-54.09684
2018-01-13 19:40:00+00:00,297.4247,2.5,12.81,47.84626,-54.09684
2018-01-13 19:50:00+00:00,300.0797,2.5,12.81,47.84626,-54.09684
2018-01-13 20:00:00+00:00,308.6397,2.5,12.81,47.84626,-54.09684
2018-01-13 20:10:00+00:00,313.9563,2.5,12.73,47.84626,-54.09684
2018-01-13 20:20:00+00:00,315.3747,2.5,12.81,47.84626,-54.09684
2018-01-13 20:30:00+00:00,320.448,2.5,12.81,47.84626,-54.09684
2018-01-13 20:40:00+00:00,326.8496,2.5,12.81,47.84626,-54.09684
2018-01-13 20:50:00+00:00,328.7346,2.5,12.81,47.84626,-54.09684
2018-01-13 21:00:00+00:00,327.9896,2.51,12.73,47.84626,-54.09684
2018-01-13 21:10:00+00:00,332.8914,2.55,12.73,47.84626,-54.09684
2018-01-13 21:20:00+00:00,339.3146,2.55,12.81,47.84626,-54.09684
2018-01-13 21:30:00+00:00,340.3812,2.57,12.81,47.84626,-54.09684
2018-01-13 21:40:00+00:00,340.7629,2.58,12.81,47.84626,-54.09684
2018-01-13 21:50:00+00:00,343.8713,2.57,12.81,47.84626,-54.09684
2018-01-13 22:00:00+00:00,349.0297,2.57,12.73,47.84626,-54.09684
2018-01-13 22:10:00+00:00,350.7446,2.57,12.73,47.84626,-54.09684
2018-01-13 22:20:00+00:00,351.0764,2.57,12.81,47.84626,-54.09684
2018-01-13 22:30:00+00:00,348.3896,2.56,12.81,47.84626,-54.09684
2018-01-13 22:40:00+00:00,341.7346,2.53,12.81,47.84626,-54.09684
2018-01-13 22:50:00+00:00,338.5579,2.53,12.81,47.84626,-54.09684
2018-01-13 23:00:00+00:00,337.2463,2.52,12.73,47.84626,-54.09684
2018-01-13 23:10:00+00:00,336.4413,2.51,12.73,47.84626,-54.09684
2018-01-13 23:20:00+00:00,330.6013,2.51,12.81,47.84626,-54.09684
2018-01-13 23:30:00+00:00,321.413,2.5,12.81,47.84626,-54.09684
2018-01-13 23:40:00+00:00,319.4647,2.5,12.81,47.84626,-54.09684
2018-01-13 23:50:00+00:00,319.6313,2.5,12.81,47.84626,-54.09684
